QPF
0.02 0.00 0.00 0.00 0.00 0.00 0.00 0.01 0.02 0.04 0.12 0.25 0.41 0.51 0.16 0.01 0.00 0.00 0.00 0.00 0.00 0.00 0.00 0.00 0.00 0.07 0.08 0.25 0.20 0.00 0.00 0.02 0.00 0.00 0.00 0.00 0.00 0.00 0.00 0.00 0.00 0.00 0.00 0.00 0.00 0.00 0.00
0.00 0.00 0.00 0.00 0.00 0.00 0.00 0.01 0.02 0.09 0.32 0.89 0.78 0.51 0.10 0.00 0.00 0.00 0.00 0.00 0.00 0.00 0.00 0.00 0.03 0.05 0.05 0.16 0.16 0.11 0.05 0.02 0.00 0.00 0.00 0.00 0.00 0.00 0.00 0.00 0.00 0.00 0.00 0.00 0.00 0.00 0.00
0.00 0.00 0.00 0.01 0.00 0.00 0.01 0.01 0.02 0.16 0.48 0.60 0.47 0.37 0.04 0.00 0.00 0.00 0.00 0.00 0.00 0.00 0.00 0.00 0.14 0.06 0.04 0.06 0.08 0.21 0.11 0.01 0.00 0.00 0.00 0.00 0.00 0.00 0.00 0.00 0.00 0.00 0.00 0.00 0.00 0.00 0.00
0.00 0.00 0.00 0.01 0.00 0.00 0.01 0.01 0.01 0.05 0.12 0.17 0.19 0.12 0.01 0.00 0.00 0.00 0.00 0.00 0.00 0.00 0.00 0.01 0.06 0.10 0.19 0.10 0.05 0.12 0.09 0.01 0.00 0.00 0.00 0.00 0.00 0.00 0.00 0.00 0.00 0.00 0.00 0.00 0.00 0.00 0.00
0.00 0.00 0.00 0.01 0.00 0.00 0.00 0.00 0.01 0.01 0.02 0.03 0.02 0.01 0.00 0.00 0.00 0.00 0.00 0.00 0.01 0.02 0.02 0.02 0.03 0.02 0.06 0.04 0.02 0.04 0.04 0.00 0.00 0.00 0.00 0.00 0.00 0.00 0.00 0.00 0.00 0.00 0.00 0.00 0.00 0.00 0.00
0.00 0.00 0.00 0.00 0.00 0.00 0.00 0.00 0.01 0.01 0.00 0.00 0.00 0.00 0.00 0.00 0.00 0.00 0.00 0.00 0.00 0.01 0.02 0.01 0.02 0.03 0.02 0.02 0.03 0.01 0.00 0.00 0.00 0.00 0.00 0.00 0.00 0.00 0.00 0.00 0.00 0.00 0.00 0.00 0.00 0.00 0.00
0.00 0.00 0.00 0.00 0.00 0.00 0.00 0.01 0.01 0.01 0.00 0.00 0.00 0.00 0.00 0.00 0.00 0.00 0.00 0.00 0.01 0.02 0.03 0.02 0.02 0.02 0.00 0.00 0.01 0.01 0.00 0.00 0.00 0.00 0.00 0.00 0.00 0.00 0.00 0.00 0.00 0.00 0.00 0.00 0.00 0.00 0.00
0.00 0.00 0.00 0.00 0.01 0.01 0.01 0.01 0.00 0.01 0.01 0.00 0.00 0.01 0.01 0.00 0.00 0.00 0.00 0.00 0.00 0.03 0.08 0.01 0.00 0.00 0.00 0.00 0.00 0.00 0.00 0.00 0.00 0.00 0.00 0.00 0.00 0.00 0.00 0.00 0.00 0.00 0.00 0.00 0.00 0.00 0.00
0.00 0.00 0.00 0.00 0.01 0.01 0.01 0.01 0.00 0.01 0.01 0.00 0.00 0.01 0.00 0.00 0.00 0.00 0.00 0.00 0.01 0.02 0.04 0.03 0.02 0.02 0.00 0.01 0.01 0.00 0.00 0.00 0.00 0.00 0.00 0.00 0.00 0.00 0.00 0.00 0.00 0.00 0.00 0.00 0.00 0.00 0.00
0.00 0.00 0.00 0.00 0.01 0.01 0.00 0.00 0.00 0.00 0.00 0.00 0.00 0.00 0.00 0.00 0.00 0.00 0.00 0.00 0.00 0.00 0.01 0.13 0.09 0.09 0.01 0.01 0.00 0.00 0.00 0.00 0.00 0.00 0.00 0.00 0.00 0.00 0.00 0.00 0.00 0.00 0.00 0.00 0.00 0.00 0.00
0.00 0.00 0.00 0.00 0.02 0.02 0.00 0.00 0.00 0.00 0.00 0.00 0.00 0.00 0.00 0.00 0.00 0.00 0.00 0.00 0.00 0.00 0.04 0.10 0.08 0.04 0.02 0.03 0.02 0.00 0.00 0.01 0.01 0.01 0.00 0.00 0.00 0.00 0.00 0.00 0.00 0.00 0.00 0.00 0.00 0.01 0.02
0.00 0.00 0.00 0.00 0.01 0.02 0.01 0.00 0.00 0.00 0.00 0.00 0.00 0.00 0.00 0.00 0.00 0.00 0.00 0.04 0.02 0.00 0.06 0.08 0.07 0.07 0.07 0.02 0.01 0.00 0.00 0.00 0.00 0.00 0.00 0.00 0.00 0.00 0.00 0.00 0.00 0.00 0.00 0.00 0.00 0.00 0.02
0.00 0.00 0.00 0.00 0.01 0.01 0.01 0.00 0.00 0.00 0.00 0.00 0.00 0.00 0.00 0.00 0.00 0.00 0.00 0.00 0.00 0.01 0.04 0.06 0.08 0.03 0.01 0.02 0.00 0.00 0.00 0.00 0.00 0.01 0.00 0.00 0.00 0.00 0.00 0.00 0.00 0.00 0.01 0.01 0.00 0.01 0.01
0.00 0.00 0.00 0.00 0.00 0.01 0.01 0.01 0.00 0.00 0.00 0.00 0.00 0.00 0.00 0.00 0.00 0.00 0.00 0.00 0.01 0.03 0.02 0.01 0.00 0.00 0.01 0.00 0.00 0.00 0.01 0.01 0.00 0.01 0.01 0.00 0.00 0.00 0.00 0.00 0.00 0.01 0.03 0.06 0.03 0.01 0.02
0.00 0.00 0.00 0.00 0.00 0.00 0.01 0.01 0.00 0.00 0.00 0.00 0.00 0.00 0.00 0.00 0.00 0.00 0.00 0.00 0.01 0.01 0.00 0.00 0.00 0.00 0.00 0.03 0.03 0.02 0.04 0.02 0.00 0.00 0.01 0.02 0.00 0.00 0.00 0.00 0.00 0.01 0.02 0.03 0.06 0.03 0.07
0.00 0.00 0.00 0.00 0.00 0.00 0.00 0.00 0.00 0.00 0.00 0.00 0.00 0.00 0.00 0.00 0.00 0.00 0.00 0.00 0.00 0.00 0.00 0.00 0.00 0.00 0.00 0.00 0.01 0.01 0.02 0.00 0.01 0.01 0.00 0.00 0.00 0.00 0.00 0.00 0.00 0.01 0.02 0.05 0.06 0.04 0.04
0.00 0.00 0.00 0.00 0.00 0.00 0.00 0.00 0.00 0.00 0.00 0.00 0.00 0.00 0.00 0.00 0.00 0.00 0.00 0.00 0.00 0.00 0.00 0.00 0.00 0.00 0.00 0.00 0.00 0.00 0.00 0.00 0.00 0.00 0.00 0.00 0.00 0.00 0.00 0.00 0.00 0.00 0.01 0.05 0.09 0.09 0.07
0.00 0.00 0.00 0.00 0.00 0.00 0.00 0.00 0.00 0.00 0.00 0.00 0.00 0.00 0.00 0.00 0.00 0.00 0.00 0.00 0.00 0.00 0.00 0.00 0.00 0.00 0.00 0.00 0.00 0.00 0.00 0.00 0.00 0.00 0.00 0.00 0.00 0.00 0.00 0.00 0.00 0.00 0.00 0.02 0.06 0.07 0.03
0.00 0.00 0.00 0.00 0.00 0.00 0.00 0.00 0.00 0.00 0.00 0.00 0.00 0.00 0.00 0.00 0.00 0.00 0.00 0.00 0.00 0.00 0.00 0.00 0.00 0.00 0.00 0.00 0.00 0.00 0.00 0.00 0.00 0.00 0.00 0.00 0.00 0.00 0.00 0.00 0.00 0.00 0.00 0.00 0.00 0.01 0.00
0.00 0.00 0.00 0.00 0.00 0.00 0.00 0.00 0.00 0.00 0.00 0.00 0.00 0.00 0.00 0.00 0.00 0.00 0.00 0.00 0.00 0.00 0.00 0.00 0.00 0.00 0.00 0.00 0.00 0.00 0.00 0.00 0.00 0.00 0.00 0.00 0.00 0.00 0.00 0.00 0.00 0.00 0.00 0.00 0.00 0.00 0.00
0.00 0.00 0.00 0.00 0.00 0.00 0.00 0.00 0.00 0.00 0.00 0.00 0.00 0.00 0.00 0.00 0.00 0.00 0.00 0.00 0.00 0.00 0.00 0.00 0.00 0.00 0.00 0.00 0.00 0.00 0.00 0.00 0.00 0.00 0.00 0.00 0.00 0.00 0.00 0.00 0.00 0.00 0.00 0.00 0.00 0.00 0.00
0.00 0.00 0.00 0.00 0.00 0.00 0.00 0.00 0.00 0.00 0.00 0.00 0.00 0.00 0.00 0.00 0.00 0.00 0.00 0.00 0.00 0.00 0.00 0.00 0.00 0.00 0.00 0.00 0.00 0.00 0.00 0.00 0.00 0.00 0.00 0.00 0.00 0.00 0.00 0.00 0.00 0.00 0.00 0.00 0.00 0.00 0.00
0.00 0.00 0.00 0.00 0.00 0.00 0.00 0.00 0.00 0.00 0.00 0.00 0.00 0.00 0.00 0.00 0.00 0.00 0.00 0.00 0.00 0.00 0.00 0.00 0.00 0.00 0.00 0.00 0.00 0.00 0.00 0.00 0.00 0.00 0.00 0.00 0.00 0.00 0.00 0.00 0.00 0.00 0.00 0.00 0.00 0.00 0.00
0.00 0.00 0.00 0.00 0.00 0.00 0.00 0.00 0.00 0.00 0.00 0.00 0.00 0.00 0.00 0.00 0.00 0.00 0.00 0.00 0.00 0.00 0.00 0.00 0.00 0.00 0.00 0.00 0.00 0.00 0.00 0.00 0.00 0.00 0.00 0.00 0.00 0.00 0.00 0.00 0.00 0.00 0.00 0.00 0.00 0.00 0.00
0.01 0.00 0.00 0.00 0.00 0.00 0.00 0.00 0.00 0.00 0.00 0.00 0.00 0.00 0.00 0.00 0.00 0.00 0.00 0.00 0.00 0.00 0.00 0.00 0.00 0.00 0.00 0.00 0.00 0.00 0.00 0.00 0.00 0.00 0.00 0.00 0.00 0.00 0.00 0.00 0.00 0.00 0.00 0.00 0.00 0.00 0.00
0.01 0.00 0.00 0.00 0.00 0.00 0.00 0.00 0.00 0.00 0.00 0.00 0.00 0.00 0.00 0.00 0.00 0.00 0.00 0.00 0.00 0.00 0.00 0.00 0.00 0.00 0.00 0.00 0.00 0.00 0.00 0.00 0.00 0.00 0.00 0.00 0.00 0.00 0.00 0.00 0.00 0.00 0.00 0.00 0.00 0.00 0.00
0.00 0.00 0.00 0.00 0.00 0.00 0.00 0.00 0.00 0.00 0.00 0.00 0.00 0.00 0.00 0.00 0.00 0.00 0.00 0.00 0.00 0.00 0.00 0.00 0.00 0.00 0.00 0.00 0.00 0.00 0.00 0.00 0.00 0.00 0.00 0.00 0.00 0.00 0.00 0.00 0.00 0.00 0.00 0.00 0.00 0.00 0.00
0.00 0.00 0.00 0.00 0.00 0.00 0.00 0.00 0.00 0.00 0.00 0.00 0.00 0.00 0.00 0.00 0.00 0.00 0.00 0.00 0.00 0.00 0.00 0.00 0.00 0.00 0.00 0.00 0.00 0.00 0.00 0.00 0.00 0.00 0.00 0.00 0.00 0.00 0.00 0.00 0.00 0.00 0.00 0.00 0.00 0.00 0.00
0.00 0.00 0.00 0.00 0.00 0.00 0.00 0.00 0.00 0.00 0.00 0.00 0.00 0.00 0.00 0.00 0.00 0.00 0.00 0.00 0.00 0.00 0.00 0.00 0.00 0.00 0.00 0.00 0.00 0.00 0.00 0.00 0.00 0.00 0.00 0.00 0.00 0.00 0.00 0.00 0.00 0.00 0.00 0.00 0.00 0.00 0.00
MSLP
1020.31 1019.88 1019.48 1018.79 1018.20 1017.36 1016.58 1015.66 1014.81 1013.57 1010.94 1008.20 1009.15 1010.73 1012.39 1012.69 1012.89 1013.23 1013.33 1013.21 1013.25 1013.48 1013.25 1013.08 1013.19 1013.54 1014.06 1014.44 1014.59 1014.14 1012.99 1013.53 1014.21 1014.80 1015.56 1015.98 1016.37 1017.17 1017.93 1018.47 1018.70 1018.88 1018.95 1018.89 1018.64 1018.27 1018.02
1020.76 1020.18 1019.55 1018.87 1018.10 1017.31 1016.66 1015.81 1014.95 1014.09 1012.84 1010.78 1011.13 1012.30 1012.80 1012.84 1013.20 1013.33 1013.35 1013.09 1012.92 1013.12 1013.06 1013.02 1012.60 1012.93 1013.22 1014.28 1014.76 1014.49 1014.53 1014.50 1014.69 1015.33 1015.98 1016.19 1016.72 1017.21 1018.04 1018.65 1019.06 1019.25 1019.23 1018.97 1018.47 1017.75 1017.76
1020.84 1020.26 1019.66 1018.98 1018.18 1017.34 1016.75 1016.17 1015.27 1014.50 1014.21 1013.90 1013.65 1013.52 1013.22 1013.31 1013.46 1013.38 1013.25 1012.90 1012.81 1012.70 1012.49 1012.63 1012.77 1013.02 1013.78 1014.95 1014.98 1015.17 1015.12 1015.19 1015.26 1015.68 1016.35 1016.53 1016.80 1017.38 1018.20 1018.81 1019.15 1019.35 1019.54 1019.06 1018.09 1017.82 1017.49
1020.87 1020.33 1020.13 1019.20 1018.16 1017.42 1016.69 1016.29 1015.64 1014.99 1014.67 1014.54 1014.39 1013.71 1013.54 1013.54 1013.46 1013.32 1013.19 1012.68 1012.34 1011.71 1011.94 1012.32 1012.95 1013.25 1014.14 1015.27 1015.18 1015.34 1015.84 1015.93 1015.72 1016.02 1016.47 1016.72 1016.98 1017.81 1018.44 1019.08 1019.39 1019.84 1020.09 1019.83 1018.36 1017.94 1017.32
1021.09 1020.86 1020.15 1019.22 1018.29 1017.53 1016.83 1016.23 1015.85 1015.33 1015.04 1014.97 1014.68 1014.26 1014.05 1013.85 1013.44 1013.31 1012.88 1012.70 1012.15 1010.53 1011.28 1012.21 1013.16 1013.40 1014.95 1015.14 1015.40 1015.93 1015.87 1016.07 1016.18 1016.58 1016.79 1016.92 1017.45 1018.53 1019.00 1019.85 1020.45 1020.80 1021.00 1020.43 1019.07 1017.81 1017.46
1021.63 1021.10 1020.25 1019.48 1018.61 1017.67 1016.92 1016.20 1016.01 1015.56 1015.33 1015.28 1015.25 1015.01 1014.43 1014.16 1013.71 1013.53 1012.85 1012.55 1012.07 1012.16 1012.80 1012.92 1013.22 1013.91 1015.70 1015.62 1015.86 1016.04 1015.84 1015.94 1016.56 1017.22 1017.59 1017.97 1018.71 1019.40 1020.06 1020.72 1021.22 1021.29 1021.36 1020.57 1019.62 1017.89 1017.36
1022.01 1021.23 1020.56 1019.66 1018.80 1017.93 1016.95 1016.17 1015.78 1015.57 1015.49 1015.32 1015.32 1015.33 1015.02 1014.37 1013.84 1013.59 1013.26 1013.28 1013.45 1014.09 1014.00 1014.10 1014.32 1014.71 1015.33 1016.02 1016.15 1016.14 1016.04 1016.35 1016.95 1017.61 1018.44 1018.80 1019.56 1020.02 1020.21 1020.53 1020.84 1021.04 1021.13 1020.60 1018.88 1017.62 1017.44
1022.12 1021.62 1020.85 1019.90 1019.26 1018.36 1017.36 1016.50 1015.82 1015.55 1015.63 1015.69 1015.60 1015.48 1015.43 1015.15 1014.69 1014.16 1014.09 1015.01 1016.06 1016.22 1015.45 1015.01 1015.11 1015.22 1015.78 1015.84 1016.25 1016.47 1016.39 1016.93 1017.41 1018.18 1018.73 1019.29 1019.59 1019.32 1019.67 1020.22 1020.47 1020.61 1020.53 1019.46 1017.99 1016.72 1016.63
1022.23 1021.63 1020.78 1020.30 1019.55 1018.64 1017.69 1017.01 1016.32 1015.38 1015.40 1015.80 1015.85 1015.64 1015.56 1015.50 1015.20 1015.07 1015.54 1016.18 1016.44 1016.25 1016.11 1016.64 1016.36 1016.13 1016.31 1016.33 1016.41 1016.74 1016.77 1017.05 1017.45 1018.11 1018.76 1019.23 1018.86 1018.61 1019.29 1019.69 1019.98 1019.81 1019.77 1018.81 1018.03 1016.50 1015.41
1022.27 1021.56 1020.92 1020.51 1019.76 1018.93 1018.16 1017.70 1016.75 1015.91 1015.35 1015.62 1015.79 1015.83 1015.65 1015.69 1015.92 1016.23 1016.28 1016.37 1016.42 1016.48 1016.78 1018.09 1017.40 1017.24 1016.85 1016.48 1016.80 1016.92 1016.82 1017.21 1017.55 1017.98 1018.54 1018.79 1018.43 1018.51 1018.66 1019.00 1019.15 1018.71 1017.80 1017.54 1017.16 1016.61 1015.02
1022.57 1021.75 1021.43 1020.80 1020.21 1019.50 1018.72 1018.32 1017.69 1016.50 1015.88 1015.80 1016.00 1015.94 1015.97 1015.71 1016.84 1016.84 1016.99 1016.59 1016.43 1016.61 1017.58 1018.83 1018.09 1017.86 1017.17 1017.19 1017.17 1017.18 1017.03 1017.30 1017.43 1017.55 1017.97 1018.01 1017.76 1017.80 1017.83 1017.58 1017.72 1017.24 1016.70 1016.50 1016.01 1015.46 1014.87
1022.78 1022.24 1021.79 1021.26 1020.47 1019.83 1019.24 1018.66 1018.29 1017.66 1016.60 1016.14 1016.22 1016.22 1016.20 1016.64 1017.19 1017.43 1016.91 1016.37 1016.29 1016.64 1018.35 1018.60 1018.36 1018.02 1017.66 1017.45 1017.30 1017.38 1017.53 1017.75 1017.63 1017.57 1017.38 1017.36 1017.24 1017.26 1016.92 1016.76 1016.67 1016.35 1016.12 1015.39 1014.92 1014.73 1014.17
1022.96 1022.54 1021.83 1021.07 1020.46 1019.85 1019.36 1018.80 1018.22 1017.88 1017.47 1016.58 1016.13 1016.38 1016.39 1016.86 1017.31 1016.85 1016.72 1016.77 1016.90 1017.55 1018.90 1018.59 1018.36 1018.13 1017.89 1017.65 1017.75 1017.80 1017.87 1018.02 1017.99 1018.05 1017.59 1016.96 1016.65 1016.29 1016.21 1016.20 1015.50 1015.93 1015.76 1014.99 1014.46 1013.83 1012.99
1022.86 1022.48 1021.92 1021.16 1020.76 1020.28 1019.77 1019.05 1018.56 1017.98 1017.66 1017.46 1016.55 1016.18 1016.88 1016.75 1017.13 1017.14 1017.26 1017.61 1017.42 1018.26 1018.12 1018.18 1018.02 1018.24 1017.99 1017.79 1017.78 1017.71 1017.88 1018.01 1017.82 1018.20 1017.84 1017.43 1016.45 1015.73 1015.55 1015.45 1015.08 1014.81 1014.77 1014.79 1014.26 1013.54 1012.69
1022.94 1022.44 1021.95 1021.37 1021.01 1020.52 1019.83 1019.01 1018.44 1018.11 1017.62 1017.34 1017.42 1016.92 1016.93 1016.80 1016.88 1017.28 1017.79 1017.62 1018.16 1017.98 1017.88 1017.73 1017.89 1017.78 1017.86 1017.70 1017.71 1017.80 1017.84 1017.64 1017.36 1017.64 1017.80 1016.92 1015.87 1015.01 1014.85 1014.70 1014.68 1014.18 1014.24 1014.15 1013.82 1013.22 1012.89
1022.93 1022.52 1021.93 1021.40 1021.06 1020.61 1019.81 1019.31 1018.73 1018.14 1017.72 1017.16 1017.95 1017.64 1016.75 1016.45 1016.75 1017.16 1017.57 1018.12 1018.28 1017.86 1017.67 1017.58 1017.50 1017.43 1017.46 1017.47 1017.56 1017.66 1017.29 1016.90 1016.77 1016.88 1017.20 1016.74 1016.02 1014.54 1014.22 1014.47 1014.21 1014.21 1014.09 1013.93 1013.82 1013.47 1012.96
1022.86 1022.53 1022.15 1021.53 1020.92 1020.37 1019.92 1019.55 1018.90 1017.98 1017.20 1017.05 1017.86 1017.90 1016.38 1016.28 1016.59 1017.32 1019.01 1019.24 1018.71 1017.95 1017.64 1017.53 1017.24 1017.21 1017.01 1017.06 1017.01 1017.03 1016.75 1016.31 1016.16 1016.34 1016.67 1016.48 1016.16 1014.59 1014.22 1013.94 1013.58 1013.95 1013.80 1013.93 1014.05 1013.74 1013.49
1022.94 1022.56 1022.14 1021.72 1021.10 1020.54 1020.08 1019.61 1018.82 1018.11 1017.26 1017.30 1017.94 1018.07 1016.16 1016.17 1017.62 1019.47 1019.97 1019.51 1018.80 1018.32 1017.78 1017.34 1017.10 1016.71 1016.79 1016.84 1016.92 1016.72 1016.21 1015.74 1015.45 1015.82 1016.12 1015.82 1015.73 1014.92 1013.62 1013.10 1012.76 1012.89 1013.16 1013.52 1013.91 1013.96 1013.81
1022.81 1022.59 1022.19 1021.69 1021.28 1020.84 1020.19 1019.56 1018.87 1018.33 1018.03 1018.61 1019.13 1018.84 1016.79 1016.41 1019.25 1020.59 1020.18 1019.54 1019.04 1018.32 1018.02 1017.58 1017.11 1016.84 1016.69 1016.84 1016.98 1016.49 1015.93 1015.23 1015.26 1015.52 1015.31 1015.30 1015.53 1015.05 1013.77 1013.46 1012.91 1013.24 1013.33 1013.15 1013.50 1013.92 1013.90
1022.80 1022.50 1022.25 1021.85 1021.25 1020.76 1020.16 1019.61 1019.12 1018.81 1018.30 1018.84 1019.56 1019.77 1019.00 1019.17 1020.71 1020.87 1021.08 1020.39 1019.28 1018.33 1018.09 1017.77 1017.48 1016.84 1016.80 1017.02 1016.85 1016.66 1016.14 1015.40 1015.10 1015.09 1015.00 1015.14 1015.55 1015.65 1015.40 1014.74 1014.42 1013.88 1013.45 1013.11 1013.16 1013.65 1013.73
1022.62 1022.49 1022.18 1021.84 1021.43 1020.86 1020.33 1019.66 1019.10 1018.67 1018.45 1018.87 1019.89 1021.34 1020.96 1021.20 1021.56 1021.56 1021.09 1020.69 1020.06 1019.13 1018.27 1017.95 1017.80 1017.87 1017.74 1017.55 1017.38 1017.18 1016.65 1016.10 1015.43 1015.28 1015.28 1015.53 1015.89 1015.98 1015.48 1015.01 1014.62 1014.16 1013.95 1013.53 1013.29 1013.41 1013.54
1022.41 1022.41 1022.28 1021.93 1021.49 1020.86 1020.27 1019.65 1019.08 1018.85 1018.69 1019.44 1020.56 1021.02 1021.18 1021.52 1021.34 1021.07 1021.18 1021.10 1020.55 1019.71 1019.12 1018.72 1018.66 1018.33 1017.82 1018.14 1018.43 1018.09 1017.70 1017.03 1016.73 1016.10 1015.99 1016.05 1016.34 1016.41 1015.90 1015.28 1014.85 1014.17 1013.75 1013.47 1013.39 1013.50 1013.56
1022.23 1022.24 1022.24 1022.01 1021.52 1021.04 1020.18 1019.74 1019.42 1019.40 1019.29 1020.24 1020.88 1020.96 1020.99 1021.55 1021.64 1021.72 1021.94 1021.28 1020.74 1020.12 1019.31 1018.94 1018.94 1018.65 1018.03 1017.89 1018.04 1017.77 1017.59 1017.45 1017.23 1017.20 1017.00 1016.89 1016.92 1016.95 1016.41 1015.67 1014.81 1014.33 1013.54 1013.47 1013.44 1013.47 1013.58
1022.13 1022.17 1022.10 1022.04 1021.65 1021.04 1020.37 1019.82 1019.78 1019.71 1019.85 1020.64 1021.10 1021.17 1021.46 1022.07 1021.47 1020.85 1021.01 1020.94 1020.41 1020.13 1019.85 1019.02 1018.63 1018.44 1018.10 1017.66 1017.43 1017.40 1017.47 1017.30 1017.17 1016.90 1017.02 1017.29 1017.75 1017.97 1017.50 1016.11 1015.09 1013.59 1013.18 1013.16 1013.26 1013.11 1013.06
1022.02 1021.97 1022.01 1021.95 1021.67 1021.08 1020.70 1020.11 1019.99 1019.84 1020.11 1020.78 1021.42 1021.39 1021.58 1021.92 1021.69 1021.30 1020.68 1020.45 1020.38 1019.84 1019.51 1019.01 1018.51 1018.29 1018.12 1017.93 1017.91 1017.85 1017.67 1017.35 1017.07 1016.95 1017.09 1017.31 1017.72 1018.18 1018.04 1017.21 1014.94 1013.50 1013.00 1013.02 1013.08 1012.72 1012.44
1021.80 1021.88 1021.83 1021.84 1021.61 1021.31 1021.06 1020.77 1020.39 1020.16 1020.24 1020.87 1021.73 1022.01 1021.70 1021.77 1021.62 1020.92 1020.90 1020.50 1020.13 1019.95 1019.75 1018.88 1018.34 1017.94 1018.03 1018.60 1018.88 1019.00 1018.71 1018.35 1018.07 1017.32 1016.99 1017.38 1017.68 1018.41 1018.16 1017.50 1015.40 1013.64 1012.91 1012.84 1013.00 1012.99 1012.38
1021.39 1021.63 1021.55 1021.62 1021.66 1021.38 1021.20 1021.10 1020.84 1020.45 1020.17 1020.73 1021.52 1021.89 1022.30 1022.36 1021.15 1020.55 1020.37 1020.25 1020.22 1020.04 1019.95 1019.41 1018.62 1018.33 1018.22 1019.01 1019.65 1020.08 1019.63 1019.14 1018.89 1018.31 1017.85 1018.02 1018.26 1018.42 1018.21 1017.38 1015.02 1013.71 1013.27 1013.28 1013.64 1013.41 1012.58
1020.94 1021.18 1021.42 1021.45 1021.49 1021.27 1021.12 1020.98 1020.85 1020.72 1020.28 1020.42 1021.22 1021.59 1022.20 1022.42 1021.53 1021.00 1020.23 1019.77 1019.99 1020.32 1020.59 1020.27 1020.21 1019.41 1019.03 1019.54 1019.98 1020.03 1020.08 1019.65 1019.60 1018.76 1018.16 1018.14 1018.21 1018.17 1017.85 1017.03 1015.22 1013.43 1013.68 1013.72 1013.07 1012.75 1012.68
1020.42 1020.66 1021.00 1021.16 1021.37 1021.13 1021.07 1020.85 1020.96 1020.91 1020.63 1020.46 1020.83 1020.86 1021.43 1022.14 1021.44 1021.10 1020.50 1019.89 1019.34 1019.30 1019.80 1020.01 1020.86 1021.01 1020.78 1020.62 1020.58 1020.43 1020.23 1019.84 1019.41 1019.07 1017.99 1017.97 1017.18 1017.13 1016.68 1014.77 1013.48 1013.17 1012.95 1012.57 1012.76 1012.94 1012.79
Thickness
5554 5543 5531 5514 5494 5472 5440 5416 5404 5404 5418 5450 5464 5456 5447 5448 5453 5456 5459 5464 5466 5469 5479 5488 5494 5501 5509 5513 5515 5524 5537 5536 5538 5540 5541 5543 5544 5543 5540 5541 5546 5547 5551 5553 5556 5556 5559
5546 5536 5525 5509 5491 5468 5436 5413 5406 5407 5413 5433 5441 5438 5435 5442 5443 5448 5454 5461 5465 5466 5474 5481 5492 5498 5508 5513 5510 5516 5519 5522 5528 5529 5531 5536 5536 5537 5533 5532 5535 5536 5539 5541 5547 5552 5555
5540 5532 5521 5505 5490 5471 5442 5418 5410 5411 5411 5412 5417 5420 5427 5433 5436 5443 5450 5458 5463 5467 5475 5480 5488 5495 5498 5498 5502 5502 5506 5512 5518 5522 5521 5526 5530 5529 5528 5526 5529 5530 5525 5528 5539 5544 5544
5539 5529 5511 5500 5493 5476 5456 5437 5419 5416 5411 5410 5410 5418 5425 5429 5434 5440 5446 5456 5464 5475 5479 5480 5482 5491 5493 5488 5491 5494 5495 5500 5509 5512 5514 5518 5522 5519 5521 5520 5520 5518 5515 5506 5534 5535 5541
5538 5520 5511 5501 5492 5481 5467 5454 5438 5428 5416 5412 5412 5417 5420 5425 5433 5438 5446 5453 5465 5484 5485 5481 5479 5486 5482 5480 5484 5485 5490 5495 5501 5504 5508 5514 5514 5508 5511 5495 5488 5495 5473 5501 5515 5527 5532
5533 5519 5511 5503 5494 5486 5476 5466 5450 5438 5429 5420 5408 5406 5410 5415 5427 5433 5444 5452 5466 5470 5472 5477 5480 5482 5470 5478 5477 5482 5490 5495 5495 5495 5497 5499 5492 5485 5487 5477 5472 5486 5463 5491 5493 5516 5520
5529 5521 5510 5505 5498 5491 5484 5476 5464 5449 5434 5423 5412 5402 5396 5403 5414 5424 5440 5444 5451 5457 5463 5469 5472 5474 5474 5470 5474 5480 5488 5490 5492 5489 5482 5489 5476 5462 5481 5487 5486 5485 5479 5476 5496 5508 5507
5532 5520 5512 5507 5497 5492 5487 5481 5472 5461 5445 5431 5418 5407 5394 5384 5391 5410 5426 5430 5430 5439 5457 5463 5467 5471 5469 5472 5471 5477 5484 5483 5485 5476 5482 5477 5472 5488 5488 5485 5483 5481 5474 5483 5498 5507 5502
5534 5524 5518 5507 5499 5494 5490 5485 5477 5472 5458 5442 5429 5417 5402 5387 5380 5397 5412 5421 5429 5439 5454 5451 5455 5463 5464 5469 5470 5473 5481 5482 5484 5479 5476 5474 5492 5499 5489 5482 5478 5475 5470 5478 5487 5501 5512
5537 5531 5523 5510 5504 5498 5492 5487 5483 5477 5469 5456 5443 5431 5421 5408 5395 5400 5413 5426 5434 5439 5433 5435 5445 5448 5461 5468 5466 5474 5481 5483 5484 5480 5480 5476 5489 5491 5489 5480 5481 5484 5496 5495 5494 5498 5510
5540 5533 5523 5514 5506 5499 5493 5486 5482 5483 5477 5467 5456 5448 5438 5432 5418 5416 5421 5430 5438 5444 5443 5434 5443 5447 5460 5462 5467 5470 5478 5481 5487 5495 5496 5488 5494 5492 5495 5502 5496 5498 5506 5507 5509 5511 5507
5543 5533 5523 5516 5510 5503 5495 5489 5483 5480 5481 5475 5466 5460 5454 5444 5435 5434 5439 5445 5451 5446 5444 5445 5445 5451 5456 5466 5470 5472 5475 5480 5485 5490 5497 5490 5498 5498 5496 5500 5502 5506 5504 5509 5507 5508 5515
5546 5537 5529 5525 5517 5510 5502 5494 5488 5484 5480 5481 5477 5469 5465 5457 5449 5453 5454 5454 5441 5435 5443 5453 5452 5456 5463 5471 5470 5474 5475 5472 5478 5480 5477 5495 5501 5506 5505 5503 5511 5502 5505 5504 5500 5530 5526
5551 5544 5536 5531 5523 5513 5506 5501 5493 5489 5484 5481 5482 5480 5470 5468 5462 5461 5457 5447 5454 5463 5461 5460 5465 5460 5466 5474 5478 5482 5480 5479 5479 5479 5487 5481 5481 5507 5510 5512 5518 5517 5519 5516 5523 5514 5529
5555 5550 5543 5535 5528 5520 5514 5511 5503 5496 5493 5488 5484 5482 5478 5477 5473 5470 5461 5465 5472 5471 5474 5472 5473 5479 5474 5479 5484 5485 5482 5485 5492 5483 5489 5505 5505 5516 5514 5519 5520 5524 5521 5521 5524 5525 5527
5560 5554 5549 5544 5533 5528 5525 5517 5510 5505 5501 5498 5487 5482 5489 5488 5483 5479 5477 5485 5473 5480 5483 5485 5487 5489 5491 5489 5488 5485 5493 5499 5500 5498 5497 5506 5507 5520 5526 5515 5519 5519 5522 5522 5520 5527 5532
5565 5558 5553 5549 5544 5538 5533 5524 5519 5516 5516 5510 5494 5491 5505 5499 5494 5486 5481 5477 5480 5485 5486 5489 5495 5495 5501 5490 5501 5503 5505 5508 5510 5508 5505 5507 5509 5522 5525 5522 5529 5521 5523 5518 5513 5521 5531
5566 5562 5557 5553 5550 5544 5538 5534 5531 5527 5526 5519 5503 5487 5515 5510 5486 5463 5471 5481 5488 5489 5492 5497 5498 5510 5504 5502 5501 5502 5513 5514 5520 5510 5506 5511 5508 5504 5532 5537 5540 5537 5534 5526 5522 5527 5514
5572 5565 5561 5556 5554 5549 5543 5541 5541 5538 5530 5518 5502 5487 5513 5518 5477 5463 5481 5494 5494 5495 5497 5499 5510 5509 5514 5512 5515 5518 5521 5530 5527 5516 5526 5525 5514 5516 5536 5540 5541 5531 5532 5532 5530 5522 5519
5574 5569 5564 5559 5556 5555 5551 5546 5545 5541 5538 5528 5513 5498 5501 5496 5480 5484 5479 5486 5495 5504 5508 5506 5506 5517 5522 5513 5512 5523 5521 5533 5532 5533 5536 5531 5513 5520 5515 5528 5524 5529 5533 5538 5537 5528 5538
5576 5572 5567 5563 5559 5556 5554 5551 5549 5548 5545 5535 5518 5497 5498 5478 5484 5483 5487 5490 5496 5502 5509 5508 5517 5507 5507 5517 5517 5516 5521 5524 5537 5533 5536 5531 5529 5507 5525 5528 5528 5536 5529 5534 5537 5538 5543
5577 5572 5568 5564 5561 5558 5558 5556 5553 5550 5549 5537 5526 5517 5503 5495 5497 5500 5487 5494 5497 5501 5508 5511 5511 5508 5513 5512 5511 5512 5514 5524 5530 5527 5530 5523 5519 5525 5538 5537 5531 5544 5543 5545 5543 5542 5540
5578 5573 5568 5564 5563 5560 5561 5559 5553 5549 5547 5534 5525 5522 5517 5503 5501 5498 5492 5501 5504 5503 5518 5517 5511 5512 5523 5523 5518 5517 5517 5515 5519 5523 5524 5525 5520 5517 5526 5524 5539 5549 5554 5548 5549 5545 5542
5576 5572 5569 5563 5562 5561 5561 5561 5556 5549 5546 5535 5528 5524 5519 5516 5513 5516 5510 5509 5514 5509 5511 5518 5522 5524 5531 5522 5523 5524 5520 5520 5523 5531 5522 5528 5517 5501 5505 5522 5525 5558 5552 5552 5550 5550 5545
5574 5570 5567 5563 5559 5560 5559 5559 5556 5551 5546 5537 5527 5526 5521 5517 5514 5520 5519 5520 5514 5515 5522 5523 5528 5527 5520 5527 5530 5532 5525 5543 5543 5537 5534 5524 5519 5512 5507 5490 5545 5561 5557 5553 5556 5560 5551
5570 5567 5564 5561 5559 5558 5557 5555 5551 5550 5545 5540 5526 5519 5520 5521 5523 5526 5523 5524 5521 5517 5519 5530 5530 5528 5529 5519 5519 5536 5530 5532 5535 5527 5533 5525 5516 5515 5515 5520 5558 5562 5559 5556 5555 5536 5549
5568 5563 5561 5558 5555 5554 5554 5552 5549 5548 5547 5542 5532 5524 5514 5513 5522 5529 5527 5528 5521 5517 5515 5516 5532 5532 5530 5518 5522 5513 5501 5518 5520 5524 5534 5515 5511 5515 5507 5500 5529 5543 5550 5547 5542 5545 5548
5567 5561 5557 5554 5551 5549 5549 5550 5548 5545 5546 5546 5537 5529 5519 5509 5515 5520 5530 5531 5525 5518 5518 5517 5516 5522 5522 5523 5518 5511 5500 5505 5502 5512 5528 5520 5512 5504 5497 5500 5508 5544 5542 5536 5538 5538 5544
5565 5560 5554 5551 5546 5544 5543 5545 5544 5541 5540 5542 5540 5539 5528 5517 5520 5516 5521 5528 5532 5532 5523 5517 5509 5504 5503 5498 5500 5498 5511 5495 5500 5514 5517 5510 5519 5518 5515 5527 5542 5538 5540 5545 5534 5535 5540